Location: *
(49.9853°N, 3.5569°E)
Time: 17:06:14
(UTC+00:00)

SL-8 Rocket - Pass Details

Date: 22 September 2019
Orbit: 956 x 991 km, 82.9° (Epoch: 19 October)

Event Time Altitude Azimuth Distance (km) Brightness Sun altitude
Rises 18:51:00 0° 352° (N) 3,670 7.3 -11.4°
Reaches altitude 10° 18:53:35 10° 356° (N) 2,715 6.6 -11.8°
Maximum altitude 18:59:43 60° 76° (ENE) 1,090 4.0 -12.7°
Drops below altitude 10° 19:05:46 10° 157° (SSE) 2,683 5.9 -13.7°
Enters shadow 19:07:53 - 160° (SSE) 3,467 6.5 -14.0°
